�N����,����,�~����,�C��,���x,�C��,����,���ϕ���,�ő�u�ԕ���,�ő厞����,���˗�,�I�_���x,�n�����x,�ő啗���N��,DTYPE
"22/06/25","00:10",0.0,27.7,76.9,998.9,284.2,1.5,3.6,335.0,0.00,23.3,24.8,"00:02:16",1
"22/06/25","00:20",0.0,27.6,77.6,998.9,285.9,1.3,4.0,237.1,0.00,23.4,24.7,"00:14:08",1
"22/06/25","00:30",0.0,27.6,78.0,999.1,290.8,2.2,4.4,244.8,0.00,23.5,24.8,"00:20:16",1
"22/06/25","00:40",0.0,27.5,78.2,998.9,277.6,1.8,5.0,238.7,0.00,23.4,24.4,"00:37:28",1
"22/06/25","00:50",0.0,27.4,78.6,999.1,271.3,1.7,3.5,338.8,0.00,23.4,24.5,"00:40:48",1
"22/06/25","01:00",0.0,27.4,78.8,999.1,249.1,1.8,4.3,218.4,0.00,23.4,24.6,"00:53:44",1
"22/06/25","01:10",0.0,27.2,79.7,998.9,253.6,2.1,5.6,210.2,0.00,23.4,24.4,"01:08:48",1
"22/06/25","01:20",0.0,27.0,80.8,999.1,246.7,2.0,3.7,240.0,0.00,23.5,24.2,"01:10:16",1
"22/06/25","01:30",0.0,26.7,81.9,999.1,277.0,1.7,3.6,249.6,0.00,23.4,24.4,"01:20:08",1
"22/06/25","01:40",0.0,26.6,82.5,999.1,251.4,1.7,3.9,242.6,0.00,23.4,24.2,"01:35:20",1
"22/06/25","01:50",0.0,26.6,82.7,999.3,256.0,1.2,2.8,237.6,0.00,23.5,24.4,"01:44:48",1
"22/06/25","02:00",0.0,26.5,83.0,999.6,266.8,0.7,1.3,256.6,0.00,23.4,24.6,"01:52:56",1
"22/06/25","02:10",0.0,26.4,83.5,999.8,253.1,1.0,2.6,234.6,0.00,23.4,24.5,"02:09:28",1
"22/06/25","02:20",0.0,26.5,83.5,999.6,257.7,1.0,2.5,239.2,0.00,23.5,24.3,"02:12:00",1
"22/06/25","02:30",0.0,26.5,83.6,999.8,284.5,0.8,1.4,312.1,0.00,23.5,24.4,"02:29:04",1
"22/06/25","02:40",0.0,26.4,83.6,999.8,258.4,1.0,2.1,245.0,0.00,23.4,24.4,"02:38:32",1
"22/06/25","02:50",0.0,26.3,83.8,1000.0,253.5,0.8,1.9,230.3,0.00,23.4,24.4,"02:40:56",1
"22/06/25","03:00",0.0,26.2,83.9,999.8,251.2,0.6,1.2,224.6,0.00,23.3,24.5,"02:59:20",1
"22/06/25","03:10",0.0,26.2,84.1,1000.0,228.4,1.0,1.9,231.0,0.00,23.3,24.4,"03:02:00",1
"22/06/25","03:20",0.0,26.2,84.3,1000.0,239.6,1.1,2.1,256.9,0.00,23.4,24.2,"03:15:28",1
"22/06/25","03:30",0.0,26.1,84.7,1000.5,257.2,0.8,1.6,231.9,0.00,23.4,24.4,"03:23:44",1
"22/06/25","03:40",0.0,26.1,85.1,1000.3,325.8,0.7,1.4,343.3,0.00,23.4,24.2,"03:37:44",1
"22/06/25","03:50",0.0,25.9,85.4,1000.3,346.5,0.8,2.1,348.3,0.00,23.3,24.2,"03:45:36",1
"22/06/25","04:00",0.0,25.5,86.0,1000.3,322.3,0.5,1.6,345.0,0.00,23.0,24.2,"03:50:24",1
"22/06/25","04:10",0.0,25.4,86.6,1000.8,347.5,0.8,1.4,358.4,0.00,23.0,24.2,"04:06:00",1
"22/06/25","04:20",0.0,25.3,87.2,1000.8,313.3,0.8,1.4,334.3,0.00,23.1,24.2,"04:18:16",1
"22/06/25","04:30",0.0,25.1,87.6,1000.8,321.3,0.6,1.2,6.0,0.00,22.9,24.2,"04:21:52",1
"22/06/25","04:40",0.0,24.7,87.9,1001.0,317.7,0.1,0.5,282.6,0.00,22.6,24.2,"04:30:08",1
"22/06/25","04:50",0.0,24.6,88.3,1001.2,298.1,0.6,1.1,258.4,0.00,22.6,24.2,"04:43:04",1
"22/06/25","05:00",0.0,24.6,88.6,1000.8,287.0,0.6,1.0,310.0,0.00,22.6,24.2,"04:54:48",1
"22/06/25","05:10",0.0,24.7,89.1,1001.5,337.1,0.6,1.3,322.1,0.00,22.8,24.1,"05:08:40",1
"22/06/25","05:20",0.0,24.8,89.4,1001.7,349.1,1.0,1.4,356.3,0.00,23.0,24.0,"05:16:32",1
"22/06/25","05:30",0.0,24.7,89.6,1001.2,340.3,0.6,1.4,18.9,0.00,22.9,24.0,"05:26:08",1
"22/06/25","05:40",0.0,24.6,90.0,1001.7,315.3,0.6,1.2,259.2,0.00,22.9,24.3,"05:36:16",1
"22/06/25","05:50",0.0,24.5,90.3,1001.7,308.6,0.5,1.0,310.2,0.00,22.8,24.1,"05:40:08",1
"22/06/25","06:00",0.0,24.5,90.6,1001.9,335.3,0.5,1.3,338.3,0.00,22.9,24.0,"05:52:56",1
"22/06/25","06:10",0.0,24.7,90.8,1001.7,320.1,0.6,1.4,328.1,0.01,23.1,24.2,"06:08:56",1
"22/06/25","06:20",0.0,25.0,90.9,1001.7,317.7,1.0,1.8,327.5,0.02,23.4,24.0,"06:11:52",1
"22/06/25","06:30",0.0,25.2,91.0,1001.9,319.6,1.1,1.7,335.3,0.02,23.7,24.1,"06:26:48",1
"22/06/25","06:40",0.0,25.4,91.0,1001.9,330.8,1.0,1.4,339.3,0.01,23.9,23.8,"06:31:04",1
"22/06/25","06:50",0.0,25.6,90.9,1002.2,250.4,0.3,0.9,306.2,0.02,24.0,24.1,"06:40:08",1
"22/06/25","07:00",0.0,25.8,90.9,1001.9,275.6,0.3,1.3,237.3,0.02,24.2,24.0,"06:59:52",1
"22/06/25","07:10",0.0,25.8,90.7,1002.2,247.3,0.5,1.4,247.8,0.00,24.2,23.8,"07:00:16",1
"22/06/25","07:20",0.0,25.8,90.8,1002.6,273.0,0.3,1.0,210.0,0.00,24.2,24.2,"07:10:08",1
"22/06/25","07:30",0.0,25.9,90.6,1001.9,303.3,0.8,1.6,338.3,0.02,24.3,24.1,"07:29:44",1
"22/06/25","07:40",0.0,26.0,90.4,1002.6,285.9,0.8,1.8,245.2,0.03,24.3,23.9,"07:35:52",1
"22/06/25","07:50",0.0,26.2,90.0,1002.4,321.5,0.8,1.4,323.0,0.03,24.5,24.1,"07:44:24",1
"22/06/25","08:00",0.0,26.4,89.4,1002.6,321.2,0.8,1.6,317.4,0.05,24.6,23.8,"07:58:48",1
"22/06/25","08:10",0.0,26.5,88.9,1002.9,322.1,0.8,1.4,307.3,0.04,24.6,23.8,"08:07:56",1
"22/06/25","08:20",0.0,27.1,88.3,1002.6,336.5,0.8,1.6,342.0,0.13,25.0,23.8,"08:15:52",1
"22/06/25","08:30",0.0,27.5,86.4,1002.6,305.6,0.7,1.6,246.1,0.15,25.1,24.0,"08:28:24",1
"22/06/25","08:40",0.0,27.8,85.1,1002.9,257.8,0.5,1.0,285.9,0.13,25.1,24.1,"08:37:36",1
"22/06/25","08:50",0.0,28.1,83.0,1002.2,341.8,0.7,1.6,9.4,0.12,25.0,24.1,"08:45:36",1
"22/06/25","09:00",0.0,28.5,81.6,1002.2,279.7,0.6,1.1,302.4,0.15,25.1,24.0,"08:53:12",1
"22/06/25","09:10",0.0,29.1,80.3,1002.4,199.8,0.6,0.9,236.8,0.20,25.4,23.8,"09:00:08",1
"22/06/25","09:20",0.0,30.2,76.7,1002.9,278.6,0.7,2.0,236.7,0.43,25.7,24.1,"09:14:56",1
"22/06/25","09:30",0.0,30.8,72.9,1003.6,199.7,0.8,2.1,230.3,0.44,25.4,24.1,"09:28:48",1
"22/06/25","09:40",0.0,31.1,71.5,1004.1,190.4,1.1,3.5,218.4,0.42,25.4,24.1,"09:36:00",1
"22/06/25","09:50",0.0,30.7,70.3,1004.1,313.7,1.3,3.1,351.5,0.29,24.7,24.2,"09:47:28",1
"22/06/25","10:00",0.0,31.0,70.4,1004.3,207.1,1.5,3.6,204.9,0.38,25.0,24.2,"09:53:12",1
"22/06/25","10:10",0.0,30.8,69.6,1003.6,223.9,1.3,2.7,197.2,0.24,24.6,24.1,"10:00:48",1
"22/06/25","10:20",0.0,30.3,70.1,1003.6,268.7,1.2,3.4,234.2,0.15,24.3,24.5,"10:13:20",1
"22/06/25","10:30",0.0,31.6,70.4,1003.8,151.1,0.7,2.0,208.5,0.46,25.6,24.2,"10:26:32",1
"22/06/25","10:40",0.0,31.5,67.3,1003.8,181.4,1.1,2.6,175.8,0.30,24.7,24.3,"10:37:20",1
"22/06/25","10:50",0.0,31.9,69.1,1003.6,189.6,2.0,3.6,167.7,0.42,25.6,24.4,"10:42:00",1
"22/06/25","11:00",0.0,32.0,67.0,1003.8,218.3,2.0,4.3,211.1,0.48,25.1,24.5,"10:50:56",1
"22/06/25","11:10",0.0,31.1,66.3,1003.6,220.9,1.7,5.1,221.8,0.21,24.1,24.6,"11:06:16",1
"22/06/25","11:20",0.0,30.7,68.0,1003.6,235.7,2.0,4.1,238.8,0.16,24.2,24.7,"11:19:04",1
"22/06/25","11:30",0.0,31.3,67.7,1003.4,229.5,1.7,3.2,211.5,0.35,24.6,24.6,"11:28:40",1
"22/06/25","11:40",0.0,31.3,66.0,1003.4,235.2,1.8,4.2,223.1,0.27,24.2,24.8,"11:39:20",1
"22/06/25","11:50",0.0,30.9,67.6,1003.1,243.2,1.7,4.4,207.1,0.17,24.2,24.6,"11:44:00",1
"22/06/25","12:00",0.0,30.8,68.1,1003.1,273.9,1.2,4.1,238.2,0.17,24.3,24.7,"11:56:08",1
"22/06/25","12:10",0.0,30.7,68.6,1003.1,243.8,1.5,4.4,223.3,0.15,24.3,24.8,"12:07:20",1
"22/06/25","12:20",0.0,31.0,68.7,1003.4,231.6,1.8,3.5,231.9,0.22,24.6,24.9,"12:12:40",1
"22/06/25","12:30",0.0,30.8,68.1,1003.4,252.5,1.6,3.5,225.8,0.18,24.3,25.0,"12:28:48",1
"22/06/25","12:40",0.0,30.7,68.1,1003.1,237.7,1.8,4.1,218.6,0.18,24.2,25.0,"12:39:52",1
"22/06/25","12:50",0.0,30.9,68.7,1003.1,268.3,1.3,4.1,336.0,0.20,24.5,25.1,"12:43:20",1
"22/06/25","13:00",0.0,31.2,67.9,1003.1,259.2,1.1,2.4,358.4,0.25,24.6,24.9,"12:58:32",1
"22/06/25","13:10",0.0,32.4,66.7,1002.9,220.3,1.7,3.7,176.3,0.50,25.4,24.8,"13:09:04",1
"22/06/25","13:20",0.0,32.9,63.3,1003.6,232.6,1.7,5.0,228.0,0.61,25.0,25.0,"13:10:02",1
"22/06/25","13:30",0.0,32.3,62.8,1003.6,216.0,2.2,5.0,236.4,0.44,24.3,24.9,"13:28:40",1
"22/06/25","13:40",0.0,32.1,61.6,1003.6,241.2,2.5,5.4,245.8,0.37,23.8,25.0,"13:31:44",1
"22/06/25","13:50",0.0,31.6,62.1,1004.1,250.4,2.7,5.1,237.7,0.22,23.5,25.2,"13:43:20",1
"22/06/25","14:00",0.0,31.5,62.8,1003.1,238.5,2.5,5.5,230.1,0.21,23.6,25.1,"13:50:48",1
"22/06/25","14:10",0.0,31.6,62.7,1003.1,236.6,2.3,4.8,243.6,0.22,23.7,25.4,"14:07:28",1
"22/06/25","14:20",0.0,31.6,62.4,1002.9,242.2,2.7,6.0,229.5,0.26,23.6,25.2,"14:14:16",1
"22/06/25","14:30",0.0,31.9,61.6,1002.6,233.3,2.6,4.3,227.5,0.32,23.6,25.2,"14:25:44",1
"22/06/25","14:40",0.0,31.9,61.4,1002.9,253.0,2.3,4.5,240.9,0.29,23.6,25.3,"14:31:04",1
"22/06/25","14:50",0.0,32.0,61.0,1002.9,267.6,1.5,4.7,218.6,0.20,23.6,25.2,"14:46:24",1
"22/06/25","15:00",0.0,32.1,62.1,1003.1,238.7,1.5,3.4,198.1,0.22,24.0,25.4,"14:55:04",1
"22/06/25","15:10",0.0,31.8,61.5,1002.9,237.3,2.3,5.7,226.0,0.14,23.5,25.4,"15:00:48",1
"22/06/25","15:20",0.0,31.7,62.3,1003.1,274.8,2.1,5.9,347.7,0.14,23.6,25.4,"15:14:08",1
"22/06/25","15:30",0.0,31.6,62.0,1003.1,257.4,2.0,5.9,213.6,0.18,23.5,25.5,"15:20:02",1
"22/06/25","15:40",0.0,31.4,62.8,1003.4,243.5,2.6,5.5,236.9,0.17,23.5,25.5,"15:30:40",1
"22/06/25","15:50",0.0,31.4,64.6,1003.1,250.3,2.0,5.1,237.5,0.17,24.0,25.2,"15:49:44",1
"22/06/25","16:00",0.0,30.9,65.2,1003.4,247.8,2.6,5.6,208.6,0.17,23.6,25.5,"15:51:52",1
"22/06/25","16:10",0.0,30.4,65.5,1003.1,253.0,3.1,6.7,237.4,0.10,23.2,25.3,"16:03:04",1
"22/06/25","16:20",0.0,29.8,67.1,1002.9,250.8,3.4,7.0,234.9,0.04,23.1,25.4,"16:14:40",1
"22/06/25","16:30",0.0,29.2,69.6,1003.4,267.6,2.0,5.6,301.5,0.04,23.1,25.4,"16:21:44",1
"22/06/25","16:40",0.0,29.1,71.0,1002.9,244.6,2.3,4.1,245.9,0.03,23.3,25.5,"16:38:08",1
"22/06/25","16:50",0.0,28.8,72.6,1002.6,240.2,1.8,3.9,241.4,0.03,23.4,25.1,"16:45:36",1
"22/06/25","17:00",0.0,28.7,73.5,1002.6,227.3,2.0,4.2,214.0,0.05,23.5,25.3,"16:54:56",1
"22/06/25","17:10",0.0,28.4,74.3,1003.1,233.5,2.2,4.2,227.6,0.05,23.4,25.5,"17:00:24",1
"22/06/25","17:20",0.0,28.2,75.1,1003.4,238.9,2.0,3.9,252.6,0.05,23.4,25.3,"17:14:24",1
"22/06/25","17:30",0.0,28.3,75.7,1003.6,229.3,1.3,4.0,235.8,0.08,23.6,25.4,"17:26:16",1
"22/06/25","17:40",0.0,28.3,75.5,1003.8,245.0,1.5,3.1,241.0,0.09,23.6,25.4,"17:32:08",1
"22/06/25","17:50",0.0,28.0,75.5,1003.8,229.0,2.3,4.3,236.2,0.07,23.3,25.2,"17:42:00",1
"22/06/25","18:00",0.0,28.0,75.9,1003.8,208.1,2.1,4.5,212.4,0.07,23.4,25.2,"17:59:20",1
"22/06/25","18:10",0.0,27.9,75.4,1004.1,229.6,1.8,3.7,240.8,0.06,23.2,25.2,"18:02:08",1
"22/06/25","18:20",0.0,28.0,74.5,1003.8,260.0,1.3,3.4,217.0,0.04,23.1,25.3,"18:12:56",1
"22/06/25","18:30",0.0,28.0,71.3,1004.3,285.5,2.1,7.1,234.1,0.04,22.4,25.2,"18:22:08",1
"22/06/25","18:40",0.0,27.8,69.0,1004.5,306.8,1.8,4.3,328.7,0.04,21.6,25.2,"18:31:20",1
"22/06/25","18:50",0.0,27.8,67.8,1004.8,266.6,2.2,4.5,248.4,0.03,21.3,25.4,"18:49:28",1
"22/06/25","19:00",0.0,27.8,68.2,1005.2,262.5,1.8,5.1,222.3,0.02,21.4,25.3,"18:55:36",1
"22/06/25","19:10",0.0,27.7,68.3,1004.8,264.5,2.1,5.9,339.3,0.02,21.4,25.2,"19:00:32",1
"22/06/25","19:20",0.0,27.4,68.9,1004.5,245.5,2.0,4.5,219.7,0.01,21.2,25.0,"19:12:56",1
"22/06/25","19:30",0.0,27.2,69.6,1004.5,244.6,2.2,4.7,233.2,0.00,21.2,25.2,"19:29:52",1
"22/06/25","19:40",0.0,27.0,70.4,1004.5,232.7,1.7,3.4,245.0,0.00,21.2,25.1,"19:34:08",1
"22/06/25","19:50",0.0,26.8,71.0,1005.2,240.2,1.2,3.4,163.8,0.00,21.1,25.0,"19:49:52",1
"22/06/25","20:00",0.0,26.6,72.0,1005.2,236.7,1.5,2.8,215.5,0.00,21.2,25.1,"19:56:56",1
"22/06/25","20:10",0.0,26.3,72.1,1005.5,292.2,1.2,2.9,357.3,0.00,20.9,24.9,"20:06:40",1
"22/06/25","20:20",0.0,26.6,73.1,1005.0,207.1,1.6,3.6,181.3,0.00,21.4,25.1,"20:13:12",1
"22/06/25","20:30",0.0,26.1,75.7,1005.0,199.6,1.6,3.1,189.8,0.00,21.5,24.9,"20:25:36",1
"22/06/25","20:40",0.0,25.9,77.4,1005.7,207.5,1.7,3.6,206.0,0.00,21.7,24.8,"20:36:16",1
"22/06/25","20:50",0.0,25.6,78.6,1005.7,208.8,1.8,3.6,208.8,0.00,21.6,24.8,"20:42:56",1
"22/06/25","21:00",0.0,25.5,79.1,1006.0,213.2,1.8,3.3,221.8,0.00,21.7,24.7,"20:56:08",1
"22/06/25","21:10",0.0,25.3,79.0,1005.7,229.2,1.2,2.4,225.4,0.00,21.4,24.9,"21:01:12",1
"22/06/25","21:20",0.0,25.3,79.3,1006.2,234.4,0.8,2.2,241.1,0.00,21.5,24.9,"21:10:08",1
"22/06/25","21:30",0.0,25.3,79.7,1006.7,235.2,1.3,2.5,243.0,0.00,21.6,24.8,"21:21:12",1
"22/06/25","21:40",0.0,25.3,79.9,1006.9,242.9,1.3,2.6,255.5,0.00,21.6,24.7,"21:31:28",1
"22/06/25","21:50",0.0,25.2,79.9,1007.4,305.5,1.2,2.1,255.2,0.00,21.5,24.7,"21:40:32",1
"22/06/25","22:00",0.0,24.7,80.5,1006.9,341.9,1.1,2.0,342.8,0.00,21.2,24.8,"21:51:28",1
"22/06/25","22:10",0.0,24.3,81.3,1007.1,320.9,1.1,1.7,340.9,0.00,20.9,24.6,"22:09:20",1
"22/06/25","22:20",0.0,24.0,81.9,1007.6,236.2,0.5,1.4,336.6,0.00,20.8,24.6,"22:10:24",1
"22/06/25","22:30",0.0,23.8,82.2,1007.6,317.3,0.5,0.9,322.6,0.00,20.6,24.6,"22:26:24",1
"22/06/25","22:40",0.0,23.8,82.6,1007.8,304.4,0.5,1.2,320.9,0.00,20.7,24.6,"22:32:24",1
"22/06/25","22:50",0.0,23.9,83.7,1007.6,324.9,1.0,1.6,339.7,0.00,21.0,24.5,"22:46:00",1
"22/06/25","23:00",0.0,23.4,84.4,1007.6,315.6,1.2,1.9,350.1,0.00,20.7,24.7,"22:52:16",1
"22/06/25","23:10",0.0,23.3,84.9,1007.6,310.2,1.2,2.4,331.7,0.00,20.7,24.7,"23:08:16",1
"22/06/25","23:20",0.0,23.3,85.1,1008.1,324.4,1.2,2.1,329.0,0.00,20.7,24.3,"23:14:08",1
"22/06/25","23:30",0.0,23.3,85.3,1008.8,309.2,0.7,1.6,338.4,0.00,20.7,24.4,"23:25:52",1
"22/06/25","23:40",0.0,23.2,85.6,1007.8,312.3,1.0,1.6,306.0,0.00,20.7,24.4,"23:38:00",1
"22/06/25","23:50",0.0,23.4,85.8,1007.8,346.0,1.6,2.7,358.5,0.00,20.9,24.6,"23:44:24",1
"22/06/25","24:00",0.0,23.2,86.0,1007.4,311.9,1.0,1.4,317.4,0.00,20.8,24.2,"23:55:36",1
